Time,TemperatureF,DewpointF,PressureIn,WindDirection,WindDirectionDegrees,WindSpeedMPH,WindSpeedGustMPH,Humidity,HourlyPrecipIn,Conditions,Clouds,dailyrainin,SoftwareType,DateUTC
2013-02-07 00:02:00,18.0,17.0,30.18,NW,313,0.0,0.0,96,0.00,,,0.00,,2013-02-07 05:02:00,
2013-02-07 00:12:00,18.0,17.0,30.18,NW,313,0.0,0.0,96,0.00,,,0.00,,2013-02-07 05:12:00,
2013-02-07 00:21:00,18.0,17.0,30.18,NW,313,0.0,0.0,96,0.00,,,0.00,,2013-02-07 05:21:00,
2013-02-07 00:32:00,18.0,17.0,30.19,NW,313,0.0,0.0,96,0.00,,,0.00,,2013-02-07 05:32:00,
2013-02-07 00:42:00,18.0,17.0,30.19,NW,313,0.0,0.0,96,0.00,,,0.00,,2013-02-07 05:42:00,
2013-02-07 00:52:00,18.0,17.0,30.20,NW,313,0.0,0.0,96,0.00,,,0.00,,2013-02-07 05:52:00,
2013-02-07 01:02:00,18.0,17.0,30.21,NW,313,0.0,0.0,96,0.00,,,0.00,,2013-02-07 06:02:00,
2013-02-07 01:11:00,18.0,17.0,30.21,NW,313,0.0,0.0,96,0.00,,,0.00,,2013-02-07 06:11:00,
2013-02-07 01:22:00,18.0,17.0,30.21,NW,313,0.0,0.0,96,0.00,,,0.00,,2013-02-07 06:22:00,
2013-02-07 01:32:00,17.0,16.0,30.21,NNW,340,0.0,0.0,96,0.00,,,0.00,,2013-02-07 06:32:00,
2013-02-07 01:43:00,17.0,16.0,30.21,NNW,340,0.0,0.0,96,0.00,,,0.00,,2013-02-07 06:43:00,
2013-02-07 01:52:00,17.0,16.0,30.21,NNW,340,0.0,0.0,96,0.00,,,0.00,,2013-02-07 06:52:00,
2013-02-07 02:02:00,17.0,16.0,30.21,NNW,340,0.0,0.0,96,0.00,,,0.00,,2013-02-07 07:02:00,
2013-02-07 02:11:00,17.0,16.0,30.21,NNW,340,0.0,0.0,96,0.00,,,0.00,,2013-02-07 07:11:00,
2013-02-07 02:22:00,17.0,16.0,30.20,NNW,340,0.0,0.0,96,0.00,,,0.00,,2013-02-07 07:22:00,
2013-02-07 02:32:00,17.0,16.0,30.20,NNW,341,0.0,0.0,96,0.00,,,0.00,,2013-02-07 07:32:00,
2013-02-07 02:42:00,17.0,16.0,30.20,NNW,341,0.0,0.0,96,0.00,,,0.00,,2013-02-07 07:42:00,
2013-02-07 02:52:00,17.0,16.0,30.20,NNW,341,0.0,0.0,96,0.00,,,0.00,,2013-02-07 07:52:00,
2013-02-07 03:02:00,18.0,17.0,30.19,NNW,340,0.0,0.0,97,0.00,,,0.00,,2013-02-07 08:02:00,
2013-02-07 03:11:00,18.0,17.0,30.19,NNW,340,0.0,0.0,97,0.00,,,0.00,,2013-02-07 08:11:00,
2013-02-07 03:22:00,18.0,17.0,30.18,ESE,105,0.0,4.0,96,0.00,,,0.00,,2013-02-07 08:22:00,
2013-02-07 03:32:00,18.0,17.0,30.17,East,90,0.0,3.0,97,0.00,,,0.00,,2013-02-07 08:32:00,
2013-02-07 03:42:00,18.0,17.0,30.17,East,90,0.0,3.0,97,0.00,,,0.00,,2013-02-07 08:42:00,
2013-02-07 03:52:00,18.0,17.0,30.17,East,90,0.0,0.0,97,0.00,,,0.00,,2013-02-07 08:52:00,
2013-02-07 04:02:00,19.0,18.0,30.17,East,90,0.0,0.0,97,0.00,,,0.00,,2013-02-07 09:02:00,
2013-02-07 04:11:00,19.0,18.0,30.17,East,90,0.0,0.0,97,0.00,,,0.00,,2013-02-07 09:11:00,
2013-02-07 04:22:00,19.0,18.0,30.16,East,90,0.0,0.0,97,0.00,,,0.00,,2013-02-07 09:22:00,
2013-02-07 04:32:00,20.0,19.0,30.17,East,101,0.0,4.0,97,0.00,,,0.00,,2013-02-07 09:32:00,
2013-02-07 04:42:00,20.0,19.0,30.17,East,101,0.0,4.0,97,0.00,,,0.00,,2013-02-07 09:42:00,
2013-02-07 04:52:00,20.0,19.0,30.18,East,92,0.0,3.0,97,0.00,,,0.00,,2013-02-07 09:52:00,
2013-02-07 05:02:00,20.0,19.0,30.18,East,90,2.0,7.0,97,0.00,,,0.00,,2013-02-07 10:02:00,
2013-02-07 05:11:00,20.0,19.0,30.18,East,90,2.0,7.0,97,0.00,,,0.00,,2013-02-07 10:11:00,
2013-02-07 05:22:00,20.0,19.0,30.19,SE,134,2.0,4.0,97,0.00,,,0.00,,2013-02-07 10:22:00,
2013-02-07 05:32:00,20.0,19.0,30.19,East,99,2.0,5.0,97,0.00,,,0.00,,2013-02-07 10:32:00,
2013-02-07 05:42:00,20.0,19.0,30.19,East,99,2.0,5.0,97,0.00,,,0.00,,2013-02-07 10:42:00,
2013-02-07 05:51:00,20.0,19.0,30.20,ESE,103,2.0,6.0,97,0.00,,,0.00,,2013-02-07 10:51:00,
2013-02-07 06:02:00,19.0,18.0,30.20,East,86,2.0,4.0,96,0.00,,,0.00,,2013-02-07 11:02:00,
2013-02-07 06:11:00,19.0,18.0,30.20,East,86,2.0,4.0,96,0.00,,,0.00,,2013-02-07 11:11:00,
2013-02-07 06:23:00,19.0,18.0,30.21,East,92,0.0,3.0,96,0.00,,,0.00,,2013-02-07 11:23:00,
2013-02-07 06:32:00,19.0,18.0,30.22,East,92,5.0,5.0,96,0.00,,,0.00,,2013-02-07 11:32:00,
2013-02-07 06:44:00,19.0,18.0,30.22,East,92,5.0,5.0,96,0.00,,,0.00,,2013-02-07 11:44:00,
2013-02-07 06:52:00,19.0,18.0,30.22,East,88,1.0,7.0,96,0.00,,,0.00,,2013-02-07 11:52:00,
2013-02-07 07:02:00,20.0,19.0,30.22,ESE,102,0.0,5.0,96,0.00,,,0.00,,2013-02-07 12:02:00,
2013-02-07 07:12:00,20.0,19.0,30.22,ESE,102,0.0,5.0,96,0.00,,,0.00,,2013-02-07 12:12:00,
2013-02-07 07:22:00,20.0,19.0,30.21,ESE,113,0.0,3.0,96,0.00,,,0.00,,2013-02-07 12:22:00,
2013-02-07 07:33:00,19.0,18.0,30.22,East,88,0.0,3.0,96,0.00,,,0.00,,2013-02-07 12:33:00,
2013-02-07 07:42:00,19.0,18.0,30.22,East,88,0.0,3.0,96,0.00,,,0.00,,2013-02-07 12:42:00,
2013-02-07 07:53:00,19.0,18.0,30.22,East,87,0.0,2.0,96,0.00,,,0.00,,2013-02-07 12:53:00,
2013-02-07 08:03:00,20.0,19.0,30.22,ENE,75,0.0,2.0,96,0.00,,,0.00,,2013-02-07 13:03:00,
2013-02-07 08:12:00,20.0,19.0,30.22,ENE,75,0.0,2.0,96,0.00,,,0.00,,2013-02-07 13:12:00,
2013-02-07 08:22:00,20.0,19.0,30.22,East,86,3.0,4.0,96,0.00,,,0.00,,2013-02-07 13:22:00,
2013-02-07 08:32:00,20.0,19.0,30.23,ENE,78,0.0,5.0,96,0.00,,,0.00,,2013-02-07 13:32:00,
2013-02-07 08:42:00,20.0,19.0,30.23,ENE,78,0.0,5.0,96,0.00,,,0.00,,2013-02-07 13:42:00,
2013-02-07 08:52:00,20.0,19.0,30.23,East,87,2.0,4.0,96,0.00,,,0.00,,2013-02-07 13:52:00,
2013-02-07 09:02:00,21.0,20.0,30.22,ESE,111,0.0,4.0,96,0.00,,,0.00,,2013-02-07 14:02:00,
2013-02-07 09:11:00,21.0,20.0,30.22,ESE,111,0.0,4.0,96,0.00,,,0.00,,2013-02-07 14:11:00,
2013-02-07 09:22:00,21.0,20.0,30.22,ENE,78,2.0,5.0,95,0.00,,,0.00,,2013-02-07 14:22:00,
2013-02-07 09:32:00,21.0,20.0,30.22,East,86,0.0,3.0,95,0.00,,,0.00,,2013-02-07 14:32:00,
2013-02-07 09:42:00,21.0,20.0,30.22,East,86,0.0,3.0,95,0.00,,,0.00,,2013-02-07 14:42:00,
2013-02-07 09:52:00,22.0,21.0,30.22,ENE,69,0.0,5.0,95,0.00,,,0.00,,2013-02-07 14:52:00,
2013-02-07 10:02:00,22.0,21.0,30.21,SE,129,2.0,6.0,95,0.00,,,0.00,,2013-02-07 15:02:00,
2013-02-07 10:11:00,22.0,21.0,30.21,SE,129,2.0,6.0,95,0.00,,,0.00,,2013-02-07 15:11:00,
2013-02-07 10:22:00,22.0,21.0,30.21,SE,136,3.0,6.0,95,0.00,,,0.00,,2013-02-07 15:22:00,
2013-02-07 10:32:00,23.0,22.0,30.21,ESE,107,3.0,8.0,95,0.00,,,0.00,,2013-02-07 15:32:00,
2013-02-07 10:42:00,23.0,22.0,30.21,ESE,107,3.0,8.0,95,0.00,,,0.00,,2013-02-07 15:42:00,
2013-02-07 10:52:00,23.0,22.0,30.20,East,80,2.0,7.0,94,0.00,,,0.00,,2013-02-07 15:52:00,
2013-02-07 11:01:00,24.0,23.0,30.19,SE,132,2.0,7.0,94,0.00,,,0.00,,2013-02-07 16:01:00,
2013-02-07 11:11:00,24.0,23.0,30.19,SE,132,2.0,7.0,94,0.00,,,0.00,,2013-02-07 16:11:00,
2013-02-07 11:22:00,24.0,23.0,30.19,SE,140,7.0,11.0,94,0.00,,,0.00,,2013-02-07 16:22:00,
2013-02-07 11:32:00,25.0,24.0,30.19,SE,138,4.0,9.0,94,0.00,,,0.00,,2013-02-07 16:32:00,
2013-02-07 11:42:00,25.0,24.0,30.19,SE,138,4.0,9.0,94,0.00,,,0.00,,2013-02-07 16:42:00,
2013-02-07 11:52:00,25.0,24.0,30.19,East,80,2.0,7.0,94,0.00,,,0.00,,2013-02-07 16:52:00,
2013-02-07 12:01:00,26.0,24.0,30.18,SE,124,1.0,10.0,93,0.00,,,0.00,,2013-02-07 17:01:00,
2013-02-07 12:11:00,26.0,24.0,30.18,SE,124,1.0,10.0,93,0.00,,,0.00,,2013-02-07 17:11:00,
2013-02-07 12:22:00,26.0,24.0,30.17,ESE,106,6.0,13.0,93,0.00,,,0.00,,2013-02-07 17:22:00,
2013-02-07 12:32:00,27.0,25.0,30.16,ESE,117,7.0,12.0,92,0.00,,,0.00,,2013-02-07 17:32:00,
2013-02-07 12:43:00,27.0,25.0,30.16,ESE,117,7.0,12.0,92,0.00,,,0.00,,2013-02-07 17:43:00,
2013-02-07 12:52:00,27.0,25.0,30.15,East,82,6.0,13.0,92,0.00,,,0.00,,2013-02-07 17:52:00,
2013-02-07 13:02:00,29.0,27.0,30.14,East,85,5.0,11.0,92,0.00,,,0.00,,2013-02-07 18:02:00,
2013-02-07 13:12:00,29.0,27.0,30.14,East,85,5.0,11.0,92,0.00,,,0.00,,2013-02-07 18:12:00,
2013-02-07 13:23:00,29.0,27.0,30.14,East,85,5.0,11.0,92,0.00,,,0.00,,2013-02-07 18:23:00,
2013-02-07 13:32:00,29.0,27.0,30.12,East,91,0.0,0.0,91,0.00,,,0.00,,2013-02-07 18:32:00,
2013-02-07 13:42:00,29.0,27.0,30.12,East,91,0.0,0.0,91,0.00,,,0.00,,2013-02-07 18:42:00,
2013-02-07 13:52:00,29.0,27.0,30.12,East,91,0.0,0.0,91,0.00,,,0.00,,2013-02-07 18:52:00,
2013-02-07 14:01:00,30.0,27.0,30.10,ESE,108,0.0,0.0,89,0.00,,,0.00,,2013-02-07 19:01:00,
2013-02-07 14:11:00,30.0,27.0,30.10,ESE,108,0.0,0.0,89,0.00,,,0.00,,2013-02-07 19:11:00,
2013-02-07 14:22:00,29.0,26.0,30.09,East,90,0.0,0.0,90,0.00,,,0.00,,2013-02-07 19:22:00,
2013-02-07 14:32:00,30.0,27.0,30.09,SE,139,0.0,0.0,89,0.00,,,0.00,,2013-02-07 19:32:00,
2013-02-07 14:42:00,30.0,27.0,30.09,SE,139,0.0,0.0,89,0.00,,,0.00,,2013-02-07 19:42:00,
2013-02-07 14:52:00,30.0,27.0,30.09,ESE,105,0.0,0.0,89,0.00,,,0.00,,2013-02-07 19:52:00,
2013-02-07 15:01:00,29.0,26.0,30.09,East,100,0.0,0.0,89,0.00,,,0.00,,2013-02-07 20:01:00,
2013-02-07 15:11:00,29.0,26.0,30.09,East,100,0.0,0.0,89,0.00,,,0.00,,2013-02-07 20:11:00,
2013-02-07 15:22:00,30.0,27.0,30.09,East,100,0.0,0.0,90,0.00,,,0.00,,2013-02-07 20:22:00,
2013-02-07 15:32:00,30.0,27.0,30.09,East,95,0.0,0.0,90,0.00,,,0.00,,2013-02-07 20:32:00,
2013-02-07 15:42:00,30.0,27.0,30.09,East,95,0.0,0.0,90,0.00,,,0.00,,2013-02-07 20:42:00,
2013-02-07 15:52:00,30.0,27.0,30.08,ENE,69,0.0,0.0,89,0.00,,,0.00,,2013-02-07 20:52:00,
2013-02-07 16:02:00,30.0,27.0,30.08,East,101,0.0,0.0,89,0.00,,,0.00,,2013-02-07 21:02:00,
2013-02-07 16:11:00,30.0,27.0,30.08,East,101,0.0,0.0,89,0.00,,,0.00,,2013-02-07 21:11:00,
2013-02-07 16:22:00,30.0,27.0,30.09,East,97,0.0,0.0,89,0.00,,,0.00,,2013-02-07 21:22:00,
2013-02-07 16:32:00,29.0,26.0,30.09,ESE,118,0.0,0.0,89,0.00,,,0.00,,2013-02-07 21:32:00,
2013-02-07 16:42:00,29.0,26.0,30.09,ESE,118,0.0,0.0,89,0.00,,,0.00,,2013-02-07 21:42:00,
2013-02-07 16:52:00,29.0,26.0,30.08,SE,140,0.0,0.0,89,0.00,,,0.00,,2013-02-07 21:52:00,
2013-02-07 17:02:00,29.0,26.0,30.08,East,98,0.0,0.0,89,0.00,,,0.00,,2013-02-07 22:02:00,
2013-02-07 17:11:00,29.0,26.0,30.08,East,98,0.0,0.0,89,0.00,,,0.00,,2013-02-07 22:11:00,
2013-02-07 17:22:00,29.0,26.0,30.08,East,98,0.0,0.0,89,0.00,,,0.00,,2013-02-07 22:22:00,
2013-02-07 17:32:00,28.0,25.0,30.06,ESE,115,0.0,0.0,89,0.00,,,0.00,,2013-02-07 22:32:00,
2013-02-07 17:42:00,28.0,25.0,30.06,ESE,115,0.0,0.0,89,0.00,,,0.00,,2013-02-07 22:42:00,
2013-02-07 17:52:00,28.0,25.0,30.06,ESE,123,0.0,0.0,89,0.00,,,0.00,,2013-02-07 22:52:00,
2013-02-07 18:02:00,28.0,25.0,30.07,SE,146,0.0,0.0,89,0.00,,,0.00,,2013-02-07 23:02:00,
2013-02-07 18:11:00,28.0,25.0,30.07,SE,146,0.0,0.0,89,0.00,,,0.00,,2013-02-07 23:11:00,
2013-02-07 18:22:00,28.0,25.0,30.07,East,96,0.0,0.0,89,0.00,,,0.00,,2013-02-07 23:22:00,
2013-02-07 18:32:00,28.0,25.0,30.07,East,93,0.0,0.0,89,0.00,,,0.00,,2013-02-07 23:32:00,
2013-02-07 18:42:00,28.0,25.0,30.07,East,93,0.0,0.0,89,0.00,,,0.00,,2013-02-07 23:42:00,
2013-02-07 18:52:00,28.0,25.0,30.07,East,80,9.0,17.0,88,0.00,,,0.00,,2013-02-07 23:52:00,
2013-02-07 19:02:00,28.0,25.0,30.07,ENE,74,10.0,14.0,89,0.00,,,0.00,,2013-02-08 00:02:00,
2013-02-07 19:11:00,28.0,25.0,30.07,ENE,74,10.0,14.0,89,0.00,,,0.00,,2013-02-08 00:11:00,
2013-02-07 19:22:00,27.0,24.0,30.07,ESE,107,9.0,16.0,88,0.00,,,0.00,,2013-02-08 00:22:00,
2013-02-07 19:32:00,27.0,24.0,30.06,SE,137,6.0,17.0,89,0.00,,,0.00,,2013-02-08 00:32:00,
2013-02-07 19:42:00,27.0,24.0,30.06,SE,137,6.0,17.0,89,0.00,,,0.00,,2013-02-08 00:42:00,
2013-02-07 19:52:00,27.0,24.0,30.06,East,91,9.0,19.0,89,0.00,,,0.00,,2013-02-08 00:52:00,
2013-02-07 20:02:00,27.0,24.0,30.06,ESE,118,5.0,15.0,89,0.00,,,0.00,,2013-02-08 01:02:00,
2013-02-07 20:11:00,27.0,24.0,30.06,ESE,118,5.0,15.0,89,0.00,,,0.00,,2013-02-08 01:11:00,
2013-02-07 20:21:00,27.0,24.0,30.06,ESE,114,7.0,17.0,89,0.00,,,0.00,,2013-02-08 01:21:00,
2013-02-07 20:32:00,26.0,23.0,30.05,SE,141,12.0,14.0,89,0.00,,,0.00,,2013-02-08 01:32:00,
2013-02-07 20:42:00,26.0,23.0,30.05,SE,141,12.0,14.0,89,0.00,,,0.00,,2013-02-08 01:42:00,
2013-02-07 20:51:00,26.0,23.0,30.04,East,92,5.0,16.0,90,0.00,,,0.00,,2013-02-08 01:51:00,
2013-02-07 21:01:00,26.0,23.0,30.04,SE,140,7.0,17.0,90,0.00,,,0.00,,2013-02-08 02:01:00,
2013-02-07 21:11:00,26.0,23.0,30.04,SE,140,7.0,17.0,90,0.00,,,0.00,,2013-02-08 02:11:00,
2013-02-07 21:22:00,26.0,23.0,30.04,ENE,76,10.0,17.0,90,0.00,,,0.00,,2013-02-08 02:22:00,
2013-02-07 21:32:00,26.0,23.0,30.03,ESE,111,5.0,17.0,90,0.00,,,0.00,,2013-02-08 02:32:00,
2013-02-07 21:42:00,26.0,23.0,30.03,ESE,111,5.0,17.0,90,0.00,,,0.00,,2013-02-08 02:42:00,
2013-02-07 21:52:00,27.0,25.0,30.03,ESE,123,6.0,18.0,91,0.00,,,0.00,,2013-02-08 02:52:00,
2013-02-07 22:02:00,27.0,25.0,30.03,ESE,105,4.0,18.0,91,0.00,,,0.00,,2013-02-08 03:02:00,
2013-02-07 22:12:00,27.0,25.0,30.03,ESE,105,4.0,18.0,91,0.00,,,0.00,,2013-02-08 03:12:00,
2013-02-07 22:22:00,27.0,25.0,30.03,East,96,2.0,15.0,91,0.00,,,0.00,,2013-02-08 03:22:00,
2013-02-07 22:32:00,27.0,25.0,30.02,ESE,115,7.0,15.0,91,0.00,,,0.00,,2013-02-08 03:32:00,
2013-02-07 22:42:00,27.0,25.0,30.02,ESE,115,7.0,15.0,91,0.00,,,0.00,,2013-02-08 03:42:00,
2013-02-07 22:52:00,27.0,25.0,30.01,East,97,7.0,18.0,91,0.00,,,0.00,,2013-02-08 03:52:00,
2013-02-07 23:02:00,27.0,25.0,30.01,East,81,7.0,14.0,91,0.00,,,0.00,,2013-02-08 04:02:00,
2013-02-07 23:11:00,27.0,25.0,30.01,East,81,7.0,14.0,91,0.00,,,0.00,,2013-02-08 04:11:00,
2013-02-07 23:21:00,27.0,25.0,30.01,ESE,119,5.0,15.0,91,0.00,,,0.00,,2013-02-08 04:21:00,
2013-02-07 23:32:00,27.0,25.0,29.99,East,88,5.0,15.0,91,0.00,,,0.00,,2013-02-08 04:32:00,
2013-02-07 23:42:00,27.0,25.0,29.99,East,88,5.0,15.0,91,0.00,,,0.00,,2013-02-08 04:42:00,
2013-02-07 23:51:00,27.0,25.0,29.98,East,92,7.0,15.0,91,0.00,,,0.00,,2013-02-08 04:51:00,